Change the Weather History Date:

Saturday, October 12, 2013

  Actual Average (KGUC) Record (KGUC)
Temperature  
Mean Temperature 27 °F -  
Max Temperature 33 °F 59 °F 71 °F (1996)
Min Temperature 21 °F 22 °F 19 °F (1999)
Degree Days  
Heating Degree Days 38    
Moisture  
Dew Point 23 °F    
Average Humidity 88    
Maximum Humidity 100    
Minimum Humidity 64    
Precipitation  
Precipitation 0.00 in - - ()
Sea Level Pressure  
Sea Level Pressure 30.39 in    
Wind  
Wind Speed - (North)    
Max Wind Speed -    
Max Gust Speed -    
Visibility 3 miles    
Events Fog    
Averages and records for this station are not official NWS values.
T = Trace of Precipitation, MM = Missing Value Source: NWS Daily Summary

Daily Weather History Graph

Daily Weather History Graph

Search for Another Location

Airport or City:

Trip Planner

Search our weather history database for the weather conditions in past years. The results will help you decide how hot, cold, wet, or windy it might be!

Date:

Astronomy

Oct. 12, 2013 Rise Set
Actual Time 7:11 AM MDT 6:31 PM MDT
Civil Twilight 6:45 AM MDT 6:57 PM MDT
Nautical Twilight 6:14 AM MDT 7:28 PM MDT
Astronomical Twilight 5:43 AM MDT 7:58 PM MDT
Moon 2:38 PM MDT (10/12) 12:22 AM MDT (10/12)
Length of Visible Light 12h 12m
Length of Day
11h 19m
First Quarter, 59% of the Moon is Illuminated
Oct 12
First Quarter
Oct 18
Full
Oct 26
Last Quarter
Nov 3
New
Nov 9
First Quarter

Hourly Weather History & Observations

Time (MDT) Temp. Dew Point Humidity Pressure Visibility Wind Dir Wind Speed Gust Speed Precip Events Conditions
12:15 AM 23.0 °F 23.0 °F 100% 30.36 in 0.5 mi North - - N/A Fog Light Freezing Fog
12:35 AM 23.0 °F 23.0 °F 100% 30.36 in 0.5 mi North - - N/A Fog Light Freezing Fog
12:55 AM 23.0 °F 23.0 °F 100% 30.36 in 0.2 mi North - - N/A Fog Light Freezing Fog
1:15 AM 23.0 °F 21.2 °F 93% 30.35 in 0.2 mi North - - N/A Fog Light Freezing Fog
1:35 AM 23.0 °F 21.2 °F 93% 30.35 in 0.2 mi North - - N/A Fog Light Freezing Fog
1:55 AM 23.0 °F 21.2 °F 93% 30.35 in 0.2 mi North - - N/A Fog Light Freezing Fog
2:15 AM 23.0 °F 21.2 °F 93% 30.35 in 0.2 mi North - - N/A Fog Light Freezing Fog
2:35 AM 23.0 °F 21.2 °F 93% 30.34 in 0.2 mi North - - N/A Fog Light Freezing Fog
2:55 AM 23.0 °F 21.2 °F 93% 30.34 in 0.2 mi North - - N/A Fog Light Freezing Fog
3:15 AM 23.0 °F 21.2 °F 93% 30.33 in 0.2 mi North - - N/A Fog Light Freezing Fog
3:35 AM 23.0 °F 21.2 °F 93% 30.33 in 0.2 mi North - - N/A Fog Light Freezing Fog
3:55 AM 23.0 °F 21.2 °F 93% 30.34 in 0.2 mi North - - N/A Fog Light Freezing Fog
4:15 AM 23.0 °F 21.2 °F 93% 30.34 in 0.2 mi North - - N/A Fog Light Freezing Fog
4:35 AM 23.0 °F 21.2 °F 93% 30.34 in 0.2 mi North - - N/A Fog Light Freezing Fog
4:55 AM 21.2 °F 19.4 °F 93% 30.34 in 0.2 mi North - - N/A Fog Light Freezing Fog
5:15 AM 21.2 °F 19.4 °F 93% 30.35 in 0.2 mi North - - N/A Fog Light Freezing Fog
5:35 AM 21.2 °F 19.4 °F 93% 30.35 in 0.5 mi North - - N/A Fog Light Freezing Fog
5:55 AM 21.2 °F 19.4 °F 93% 30.35 in 2.5 mi North - - N/A   Clear
6:15 AM 21.2 °F 19.4 °F 93% 30.36 in 4.0 mi North - - N/A   Clear
6:35 AM 21.2 °F 19.4 °F 93% 30.36 in 4.0 mi North - - N/A   Clear
6:55 AM 21.2 °F 19.4 °F 93% 30.36 in 4.0 mi North - - N/A   Clear
7:15 AM 21.2 °F 19.4 °F 93% 30.36 in 0.5 mi North - - N/A Fog Light Freezing Fog
7:35 AM 21.2 °F 19.4 °F 93% 30.36 in 0.2 mi North - - N/A Fog Light Freezing Fog
7:55 AM 21.2 °F 19.4 °F 93% 30.37 in 2.5 mi North - - N/A   Scattered Clouds
8:15 AM 21.2 °F 19.4 °F 93% 30.38 in 2.5 mi North - - N/A   Clear
8:35 AM 21.2 °F 19.4 °F 93% 30.39 in 2.5 mi North - - N/A   Clear
8:55 AM 21.2 °F 19.4 °F 93% 30.39 in 2.5 mi North - - N/A   Clear
9:15 AM 23.0 °F 21.2 °F 93% 30.40 in 2.5 mi North - - N/A   Scattered Clouds
9:35 AM 23.0 °F 23.0 °F 100% 30.40 in 0.8 mi North - - N/A   Overcast
9:55 AM 24.8 °F 23.0 °F 93% 30.40 in 0.2 mi North - - N/A Fog Light Freezing Fog
10:15 AM 26.6 °F 23.0 °F 86% 30.40 in 2.0 mi North - - N/A   Overcast
10:35 AM 24.8 °F 23.0 °F 93% 30.41 in 2.0 mi North - - N/A   Mostly Cloudy
10:55 AM 26.6 °F 23.0 °F 86% 30.41 in 2.0 mi North - - N/A   Mostly Cloudy
11:15 AM 26.6 °F 23.0 °F 86% 30.41 in 2.0 mi North - - N/A   Mostly Cloudy
11:35 AM 26.6 °F 24.8 °F 93% 30.41 in 2.0 mi North - - N/A   Mostly Cloudy
11:55 AM 28.4 °F 26.6 °F 93% 30.41 in 1.8 mi North - - N/A   Mostly Cloudy
12:15 PM 28.4 °F 26.6 °F 93% 30.41 in 2.5 mi North - - N/A   Mostly Cloudy
12:35 PM 28.4 °F 28.4 °F 100% 30.40 in 2.5 mi North - - N/A   Overcast
12:55 PM 30.2 °F 28.4 °F 93% 30.40 in 2.5 mi North - - N/A   Mostly Cloudy
1:15 PM 30.2 °F 28.4 °F 93% 30.40 in 2.5 mi North - - N/A   Scattered Clouds
1:35 PM 28.4 °F 28.4 °F 100% 30.39 in 2.5 mi North - - N/A   Scattered Clouds
1:55 PM 30.2 °F 28.4 °F 93% 30.39 in 2.5 mi North - - N/A   Scattered Clouds
2:15 PM 30.2 °F 28.4 °F 93% 30.38 in 2.5 mi North - - N/A   Clear
2:35 PM 30.2 °F 30.2 °F 100% 30.38 in 3.0 mi North - - N/A   Clear
2:55 PM 32.0 °F 30.2 °F 93% 30.38 in 4.0 mi North - - N/A   Scattered Clouds
3:15 PM 32.0 °F 30.2 °F 93% 30.39 in 4.0 mi North - - N/A   Overcast
3:35 PM 32.0 °F 30.2 °F 93% 30.39 in 4.0 mi North - - N/A   Overcast
3:55 PM 32.0 °F 30.2 °F 93% 30.39 in 4.0 mi North - - N/A   Mostly Cloudy
4:15 PM 32.0 °F 30.2 °F 93% 30.38 in 4.0 mi North - - N/A   Mostly Cloudy
4:35 PM 32.0 °F 28.4 °F 87% 30.38 in 4.0 mi North - - N/A   Haze
4:55 PM 32.0 °F 28.4 °F 87% 30.39 in 4.0 mi North - - N/A   Haze
5:15 PM 33.8 °F 28.4 °F 81% 30.39 in 4.0 mi North - - N/A   Haze
5:35 PM 32.0 °F 26.6 °F 80% 30.39 in 4.0 mi North - - N/A   Haze
5:55 PM 32.0 °F 26.6 °F 80% 30.40 in 4.0 mi North - - N/A   Haze
6:15 PM 32.0 °F 26.6 °F 80% 30.40 in 4.0 mi North - - N/A   Haze
6:35 PM 32.0 °F 26.6 °F 80% 30.41 in 5.0 mi North - - N/A   Haze
6:55 PM 30.2 °F 26.6 °F 86% 30.41 in 7.0 mi North - - N/A   Clear
7:15 PM 30.2 °F 24.8 °F 80% 30.41 in 7.0 mi North - - N/A   Clear
7:35 PM 30.2 °F 24.8 °F 80% 30.42 in 7.0 mi North - - N/A   Clear
7:55 PM 30.2 °F 23.0 °F 75% 30.43 in 7.0 mi North - - N/A   Clear
8:15 PM 30.2 °F 23.0 °F 75% 30.43 in 7.0 mi North - - N/A   Clear
8:35 PM 30.2 °F 23.0 °F 75% 30.44 in 7.0 mi North - - N/A   Clear
8:55 PM 30.2 °F 21.2 °F 69% 30.44 in 7.0 mi North - - N/A   Clear
9:15 PM 30.2 °F 21.2 °F 69% 30.45 in 7.0 mi North - - N/A   Clear
9:35 PM 28.4 °F 21.2 °F 74% 30.44 in 7.0 mi North - - N/A   Clear
9:55 PM 28.4 °F 19.4 °F 69% 30.44 in 7.0 mi North - - N/A   Clear
10:15 PM 28.4 °F 19.4 °F 69% 30.45 in 7.0 mi North - - N/A   Clear
10:35 PM 28.4 °F 17.6 °F 64% 30.45 in 10.0 mi North - - N/A   Clear
10:55 PM 28.4 °F 17.6 °F 64% 30.45 in 10.0 mi North - - N/A   Clear
11:15 PM 28.4 °F 17.6 °F 64% 30.44 in 10.0 mi North - - N/A   Clear
11:35 PM 28.4 °F 19.4 °F 69% 30.44 in 10.0 mi North - - N/A   Clear
11:55 PM 28.4 °F 19.4 °F 69% 30.44 in 10.0 mi North - - N/A   Clear